Location: Gand�
(15.0971°N, 12.6564°W)
Time: 15:12:54
(UTC+00:00)

Cosmos 1356 Rocket - Pass Details

Date: 07 August 2020
Orbit: 542 x 599 km, 81.2° (Epoch: 19 September)

Event Time Altitude Azimuth Distance (km) Brightness Sun altitude
Exits shadow 05:00:23 71° 234° (SW) 628 3.3 -22.1°
Maximum altitude 05:00:42 75° 276° (W) 613 3.3 -22.0°
Drops below altitude 10° 05:04:54 10° 2° (N) 1,906 6.4 -21.1°
Sets 05:07:06 0° 4° (N) 2,798 7.3 -20.6°
